Time,TemperatureF,DewpointF,PressureIn,WindDirection,WindDirectionDegrees,WindSpeedMPH,WindSpeedGustMPH,Humidity,HourlyPrecipIn,Conditions,Clouds,dailyrainin,SoftwareType,DateUTC
2013-01-24 00:12:00,39.8,28.0,30.09,NNW,336,1.0,7.0,64,0.00,,,0.00,weatherlink.com 1.10,2013-01-24 05:12:00,
2013-01-24 00:27:00,40.0,29.0,30.09,NE,45,0.0,2.0,64,0.00,,,0.00,weatherlink.com 1.10,2013-01-24 05:27:00,
2013-01-24 00:42:00,39.4,29.0,30.08,SE,136,0.0,1.0,66,0.00,,,0.00,weatherlink.com 1.10,2013-01-24 05:42:00,
2013-01-24 00:57:00,39.2,29.0,30.08,ESE,105,2.0,5.0,66,0.00,,,0.00,weatherlink.com 1.10,2013-01-24 05:57:00,
2013-01-24 01:12:00,38.9,29.0,30.07,ESE,103,0.0,1.0,67,0.00,,,0.00,weatherlink.com 1.10,2013-01-24 06:12:00,
2013-01-24 01:27:00,38.8,29.0,30.06,SE,129,0.0,1.0,68,0.00,,,0.00,weatherlink.com 1.10,2013-01-24 06:27:00,
2013-01-24 01:42:00,39.0,29.0,30.06,ENE,63,3.0,3.0,68,0.00,,,0.00,weatherlink.com 1.10,2013-01-24 06:42:00,
2013-01-24 01:57:00,38.8,29.0,30.05,SE,127,2.0,3.0,69,0.00,,,0.00,weatherlink.com 1.10,2013-01-24 06:57:00,
2013-01-24 02:12:00,38.8,30.0,30.05,ENE,64,0.0,1.0,70,0.00,,,0.00,weatherlink.com 1.10,2013-01-24 07:12:00,
2013-01-24 02:27:00,38.5,30.0,30.05,SE,136,1.0,8.0,71,0.00,,,0.00,weatherlink.com 1.10,2013-01-24 07:27:00,
2013-01-24 02:42:00,36.4,29.0,30.05,NE,37,1.0,3.0,75,0.00,,,0.00,weatherlink.com 1.10,2013-01-24 07:42:00,
2013-01-24 02:57:00,36.7,30.0,30.04,NNE,33,0.0,3.0,76,0.00,,,0.00,weatherlink.com 1.10,2013-01-24 07:57:00,
2013-01-24 03:12:00,36.2,30.0,30.04,East,97,1.0,1.0,77,0.00,,,0.00,weatherlink.com 1.10,2013-01-24 08:12:00,
2013-01-24 03:27:00,36.1,30.0,30.03,ESE,113,0.0,2.0,77,0.00,,,0.00,weatherlink.com 1.10,2013-01-24 08:27:00,
2013-01-24 03:42:00,37.6,31.0,30.03,East,89,0.0,2.0,77,0.00,,,0.00,weatherlink.com 1.10,2013-01-24 08:42:00,
2013-01-24 03:57:00,37.9,31.0,30.03,ESE,104,0.0,2.0,76,0.00,,,0.00,weatherlink.com 1.10,2013-01-24 08:57:00,
2013-01-24 04:12:00,36.2,30.0,30.02,ESE,106,0.0,2.0,77,0.00,,,0.00,weatherlink.com 1.10,2013-01-24 09:12:00,
2013-01-24 04:28:00,33.9,30.0,30.03,NE,56,1.0,2.0,85,0.00,,,0.00,weatherlink.com 1.10,2013-01-24 09:28:00,
2013-01-24 04:43:00,33.5,28.0,30.03,NW,316,0.0,2.0,80,0.00,,,0.00,weatherlink.com 1.10,2013-01-24 09:43:00,
2013-01-24 04:58:00,32.3,28.0,30.04,ESE,117,1.0,4.0,84,0.00,,,0.00,weatherlink.com 1.10,2013-01-24 09:58:00,
2013-01-24 05:13:00,31.2,28.0,30.04,East,85,1.0,1.0,87,0.00,,,0.00,weatherlink.com 1.10,2013-01-24 10:13:00,
2013-01-24 05:28:00,31.4,28.0,30.04,NE,38,1.0,3.0,87,0.00,,,0.00,weatherlink.com 1.10,2013-01-24 10:28:00,
2013-01-24 05:43:00,31.7,28.0,30.04,NW,305,1.0,2.0,86,0.00,,,0.00,weatherlink.com 1.10,2013-01-24 10:43:00,
2013-01-24 05:58:00,30.4,27.0,30.04,NNW,333,0.0,1.0,88,0.00,,,0.00,weatherlink.com 1.10,2013-01-24 10:58:00,
2013-01-24 06:13:00,30.0,28.0,30.05,NE,46,0.0,2.0,91,0.00,,,0.00,weatherlink.com 1.10,2013-01-24 11:13:00,
2013-01-24 06:28:00,30.9,29.0,30.05,WNW,303,0.0,3.0,91,0.00,,,0.00,weatherlink.com 1.10,2013-01-24 11:28:00,
2013-01-24 06:43:00,30.4,28.0,30.06,NE,53,0.0,2.0,90,0.00,,,0.00,weatherlink.com 1.10,2013-01-24 11:43:00,
2013-01-24 06:58:00,29.7,27.0,30.07,North,4,1.0,2.0,91,0.00,,,0.00,weatherlink.com 1.10,2013-01-24 11:58:00,
2013-01-24 07:13:00,30.1,28.0,30.07,East,101,0.0,1.0,91,0.00,,,0.00,weatherlink.com 1.10,2013-01-24 12:13:00,
2013-01-24 07:28:00,30.4,29.0,30.07,NNW,329,2.0,2.0,93,0.00,,,0.00,weatherlink.com 1.10,2013-01-24 12:28:00,
2013-01-24 07:43:00,29.6,27.0,30.09,NW,325,0.0,1.0,91,0.00,,,0.00,weatherlink.com 1.10,2013-01-24 12:43:00,
2013-01-24 07:58:00,29.5,28.0,30.10,North,359,1.0,3.0,92,0.00,,,0.00,weatherlink.com 1.10,2013-01-24 12:58:00,
2013-01-24 08:13:00,29.6,28.0,30.11,SSE,160,0.0,3.0,92,0.00,,,0.00,weatherlink.com 1.10,2013-01-24 13:13:00,
2013-01-24 08:28:00,33.6,30.0,30.12,NW,320,2.0,5.0,85,0.00,,,0.00,weatherlink.com 1.10,2013-01-24 13:28:00,
2013-01-24 08:43:00,38.5,29.0,30.12,NNE,12,2.0,7.0,70,0.00,,,0.00,weatherlink.com 1.10,2013-01-24 13:43:00,
2013-01-24 08:58:00,39.9,28.0,30.14,WNW,301,3.0,7.0,63,0.00,,,0.00,weatherlink.com 1.10,2013-01-24 13:58:00,
2013-01-24 09:13:00,40.5,27.0,30.14,NNW,341,2.0,9.0,60,0.00,,,0.00,weatherlink.com 1.10,2013-01-24 14:13:00,
2013-01-24 09:28:00,40.5,27.0,30.16,NNE,22,4.0,8.0,58,0.00,,,0.00,weatherlink.com 1.10,2013-01-24 14:28:00,
2013-01-24 09:43:00,40.2,25.0,30.17,WNW,294,4.0,13.0,55,0.00,,,0.00,weatherlink.com 1.10,2013-01-24 14:43:00,
2013-01-24 09:59:00,40.2,24.0,30.18,East,84,2.0,11.0,52,0.00,,,0.00,weatherlink.com 1.10,2013-01-24 14:59:00,
2013-01-24 10:13:00,40.3,22.0,30.19,NE,46,6.0,10.0,49,0.00,,,0.00,weatherlink.com 1.10,2013-01-24 15:13:00,
2013-01-24 10:28:00,40.4,20.0,30.20,NE,49,3.0,10.0,45,0.00,,,0.00,weatherlink.com 1.10,2013-01-24 15:28:00,
2013-01-24 10:43:00,40.9,20.0,30.20,NNE,25,6.0,12.0,44,0.00,,,0.00,weatherlink.com 1.10,2013-01-24 15:43:00,
2013-01-24 10:58:00,41.7,19.0,30.22,NNE,13,7.0,13.0,41,0.00,,,0.00,weatherlink.com 1.10,2013-01-24 15:58:00,
2013-01-24 11:13:00,42.2,20.0,30.23,NNW,328,3.0,11.0,41,0.00,,,0.00,weatherlink.com 1.10,2013-01-24 16:13:00,
2013-01-24 11:28:00,42.6,20.0,30.22,NNW,338,5.0,10.0,40,0.00,,,0.00,weatherlink.com 1.10,2013-01-24 16:28:00,
2013-01-24 11:44:00,42.8,19.0,30.23,NNW,343,5.0,13.0,39,0.00,,,0.00,weatherlink.com 1.10,2013-01-24 16:44:00,
2013-01-24 11:59:00,42.9,19.0,30.24,North,358,4.0,12.0,38,0.00,,,0.00,weatherlink.com 1.10,2013-01-24 16:59:00,
2013-01-24 12:14:00,43.0,18.0,30.24,North,5,10.0,13.0,37,0.00,,,0.00,weatherlink.com 1.10,2013-01-24 17:14:00,
2013-01-24 12:29:00,42.9,18.0,30.24,NW,316,8.0,14.0,37,0.00,,,0.00,weatherlink.com 1.10,2013-01-24 17:29:00,
2013-01-24 12:44:00,42.8,17.0,30.25,NNW,337,5.0,16.0,35,0.00,,,0.00,weatherlink.com 1.10,2013-01-24 17:44:00,
2013-01-24 12:59:00,42.9,16.0,30.25,WNW,291,3.0,12.0,34,0.00,,,0.00,weatherlink.com 1.10,2013-01-24 17:59:00,
2013-01-24 13:14:00,43.3,15.0,30.25,NNW,335,5.0,16.0,32,0.00,,,0.00,weatherlink.com 1.10,2013-01-24 18:14:00,
2013-01-24 13:29:00,43.5,15.0,30.26,NNE,13,8.0,12.0,31,0.00,,,0.00,weatherlink.com 1.10,2013-01-24 18:29:00,
2013-01-24 13:44:00,43.8,16.0,30.25,NNE,15,9.0,13.0,33,0.00,,,0.00,weatherlink.com 1.10,2013-01-24 18:44:00,
2013-01-24 13:59:00,43.9,15.0,30.25,NNE,28,5.0,11.0,31,0.00,,,0.00,weatherlink.com 1.10,2013-01-24 18:59:00,
2013-01-24 14:14:00,44.1,14.0,30.26,NW,318,7.0,11.0,30,0.00,,,0.00,weatherlink.com 1.10,2013-01-24 19:14:00,
2013-01-24 14:29:00,44.1,14.0,30.26,NNE,26,6.0,11.0,29,0.00,,,0.00,weatherlink.com 1.10,2013-01-24 19:29:00,
2013-01-24 14:44:00,44.2,13.0,30.26,North,350,7.0,14.0,28,0.00,,,0.00,weatherlink.com 1.10,2013-01-24 19:44:00,
2013-01-24 14:59:00,44.4,13.0,30.27,NNE,22,9.0,10.0,28,0.00,,,0.00,weatherlink.com 1.10,2013-01-24 19:59:00,
2013-01-24 15:14:00,44.2,12.0,30.27,NW,316,8.0,13.0,27,0.00,,,0.00,weatherlink.com 1.10,2013-01-24 20:14:00,
2013-01-24 15:29:00,44.0,11.0,30.27,NNW,330,9.0,12.0,26,0.00,,,0.00,weatherlink.com 1.10,2013-01-24 20:29:00,
2013-01-24 15:44:00,44.0,11.0,30.28,NNE,30,5.0,11.0,26,0.00,,,0.00,weatherlink.com 1.10,2013-01-24 20:44:00,
2013-01-24 15:59:00,43.5,11.0,30.30,North,5,7.0,11.0,26,0.00,,,0.00,weatherlink.com 1.10,2013-01-24 20:59:00,
2013-01-24 16:14:00,43.2,10.0,30.29,WNW,297,3.0,9.0,26,0.00,,,0.00,weatherlink.com 1.10,2013-01-24 21:14:00,
2013-01-24 16:29:00,42.8,10.0,30.30,NNE,16,6.0,10.0,26,0.00,,,0.00,weatherlink.com 1.10,2013-01-24 21:29:00,
2013-01-24 16:44:00,42.3,9.0,30.31,NNE,22,1.0,8.0,26,0.00,,,0.00,weatherlink.com 1.10,2013-01-24 21:44:00,
2013-01-24 16:59:00,42.1,8.0,30.32,North,354,4.0,6.0,25,0.00,,,0.00,weatherlink.com 1.10,2013-01-24 21:59:00,
2013-01-24 17:14:00,41.4,9.0,30.32,NNE,20,3.0,13.0,26,0.00,,,0.00,weatherlink.com 1.10,2013-01-24 22:14:00,
2013-01-24 17:29:00,40.9,8.0,30.33,NNE,12,3.0,10.0,26,0.00,,,0.00,weatherlink.com 1.10,2013-01-24 22:29:00,
2013-01-24 17:44:00,40.0,8.0,30.34,NE,41,6.0,7.0,27,0.00,,,0.00,weatherlink.com 1.10,2013-01-24 22:44:00,
2013-01-24 17:59:00,39.2,7.0,30.35,NNE,19,7.0,8.0,26,0.00,,,0.00,weatherlink.com 1.10,2013-01-24 22:59:00,
2013-01-24 18:14:00,38.4,5.0,30.36,NNW,340,1.0,5.0,25,0.00,,,0.00,weatherlink.com 1.10,2013-01-24 23:14:00,
2013-01-24 18:29:00,38.1,3.0,30.36,NNE,20,2.0,7.0,23,0.00,,,0.00,weatherlink.com 1.10,2013-01-24 23:29:00,
2013-01-24 18:44:00,37.6,4.0,30.37,ESE,110,1.0,3.0,24,0.00,,,0.00,weatherlink.com 1.10,2013-01-24 23:44:00,
2013-01-24 18:59:00,36.6,3.0,30.38,ESE,122,0.0,1.0,24,0.00,,,0.00,weatherlink.com 1.10,2013-01-24 23:59:00,
2013-01-24 19:14:00,35.9,6.0,30.39,East,84,0.0,3.0,29,0.00,,,0.00,weatherlink.com 1.10,2013-01-25 00:14:00,
2013-01-24 19:29:00,35.5,8.0,30.40,North,5,0.0,4.0,32,0.00,,,0.00,weatherlink.com 1.10,2013-01-25 00:29:00,
2013-01-24 19:44:00,34.7,10.0,30.41,NE,47,1.0,3.0,35,0.00,,,0.00,weatherlink.com 1.10,2013-01-25 00:44:00,
2013-01-24 20:00:00,33.8,11.0,30.42,NW,312,1.0,3.0,39,0.00,,,0.00,weatherlink.com 1.10,2013-01-25 01:00:00,
2013-01-24 20:15:00,32.8,12.0,30.43,East,96,0.0,3.0,42,0.00,,,0.00,weatherlink.com 1.10,2013-01-25 01:15:00,
2013-01-24 20:30:00,31.8,11.0,30.43,West,276,2.0,5.0,43,0.00,,,0.00,weatherlink.com 1.10,2013-01-25 01:30:00,
2013-01-24 20:45:00,31.1,11.0,30.44,NE,56,1.0,2.0,44,0.00,,,0.00,weatherlink.com 1.10,2013-01-25 01:45:00,
2013-01-24 21:00:00,30.4,12.0,30.45,NW,315,2.0,2.0,46,0.00,,,0.00,weatherlink.com 1.10,2013-01-25 02:00:00,
2013-01-24 21:15:00,29.8,9.0,30.45,NNE,20,1.0,1.0,42,0.00,,,0.00,weatherlink.com 1.10,2013-01-25 02:15:00,
2013-01-24 21:30:00,29.4,9.0,30.46,NNE,29,0.0,7.0,42,0.00,,,0.00,weatherlink.com 1.10,2013-01-25 02:30:00,
2013-01-24 21:45:00,29.0,8.0,30.47,WNW,300,3.0,3.0,42,0.00,,,0.00,weatherlink.com 1.10,2013-01-25 02:45:00,
2013-01-24 22:00:00,28.9,8.0,30.47,NNW,329,0.0,3.0,41,0.00,,,0.00,weatherlink.com 1.10,2013-01-25 03:00:00,
2013-01-24 22:15:00,28.4,8.0,30.48,SSE,150,0.0,3.0,43,0.00,,,0.00,weatherlink.com 1.10,2013-01-25 03:15:00,
2013-01-24 22:30:00,27.7,8.0,30.48,WNW,299,1.0,1.0,43,0.00,,,0.00,weatherlink.com 1.10,2013-01-25 03:30:00,
2013-01-24 22:45:00,27.1,9.0,30.49,NW,305,0.0,1.0,46,0.00,,,0.00,weatherlink.com 1.10,2013-01-25 03:45:00,
2013-01-24 23:00:00,26.7,8.0,30.49,NE,52,0.0,1.0,46,0.00,,,0.00,weatherlink.com 1.10,2013-01-25 04:00:00,
2013-01-24 23:15:00,26.7,8.0,30.50,NNE,19,0.0,3.0,46,0.00,,,0.00,weatherlink.com 1.10,2013-01-25 04:15:00,
2013-01-24 23:30:00,26.3,8.0,30.50,ENE,72,0.0,1.0,46,0.00,,,0.00,weatherlink.com 1.10,2013-01-25 04:30:00,
2013-01-24 23:45:00,26.1,8.0,30.50,NNW,347,0.0,0.0,47,0.00,,,0.00,weatherlink.com 1.10,2013-01-25 04:45:00,